Quillayute, WA
on Friday, December 7, 2012

Friday
Previous Day Next Day
Daily Summary
 ActualAverageRecord
Temperature
Mean Temperature °F 41°F  
Max Temperature 47°F 46°F 59°F (2014)
Min Temperature 37°F 35°F 13°F (1972)
Degree Days
Heating Degree Days 23 24  
Month to date heating degree days 168  
Since 1 July heating degree days 1882  
Cooling Degree Days 0 0  
Month to date cooling degree days 0  
Year to date cooling degree days 19  
Moisture
Dew Point 39°F   
Average Humidity 87    
Maximum Humidity 100    
Minimum Humidity 58    
Precipitation
Precipitation 0.35 in 0.45 in 2.71 in (1984)
Month to date precipitation 3.23  
Year to date precipitation 89.78  
Wind
Wind Speed 8 mph   
Max Wind Speed 22 mph   
Max Gust Speed 28 mph   
Visibility 4 miles   
Events Rain   

Key: T is trace of precipitation, MM is missing value
Source: NWS Daily Summary
Time(PST)TemperatureDew PointHumidity Pressure Visibility Wind DirectionWind SpeedGust SpeedPrecipitationEvents Conditions
12:01 AM 44.6°F 42.8°F 93% 30.05 in 3.0 miles Variable 4.6 mph - 0.01 in Rain Light Rain
12:17 AM 44.6°F 42.8°F 93% 30.06 in 1.8 miles WSW 15.0 mph 26.5 mph 0.03 in Rain Rain
12:24 AM 44.6°F 42.8°F 93% 30.05 in 3.0 miles WSW 12.7 mph 20.7 mph 0.04 in Rain Light Rain
12:53 AM 45.0°F 42.1°F 90% 30.06 in 6.0 miles WSW 8.1 mph - 0.04 in   Overcast
1:53 AM 46.0°F 42.1°F 86% 30.04 in 5.0 miles SW 10.4 mph - N/A   Overcast
2:35 AM 46.4°F 42.8°F 87% 30.03 in 5.0 miles WSW 12.7 mph - N/A   Haze
2:53 AM 46.9°F 43.0°F 86% 30.03 in 6.0 miles WSW 9.2 mph - N/A   Overcast
3:17 AM 46.4°F 42.8°F 87% 30.03 in 1.8 miles West 18.4 mph 24.2 mph 0.01 in Rain Rain
3:28 AM 44.6°F 42.8°F 93% 30.02 in 3.0 miles WSW 6.9 mph 21.9 mph 0.07 in Rain Light Rain
3:53 AM 45.0°F 42.1°F 90% 30.01 in 6.0 miles WSW 9.2 mph - 0.07 in   Overcast
4:34 AM 46.4°F 42.8°F 87% 30.00 in 2.5 miles West 12.7 mph - 0.00 in Rain Rain
4:42 AM 44.6°F 42.8°F 93% 30.01 in 1.8 miles West 17.3 mph 25.3 mph 0.04 in Rain Light Rain
4:50 AM 44.6°F 42.8°F 93% 30.01 in 3.0 miles West 12.7 mph 27.6 mph 0.05 in Rain Light Rain
4:51 AM 45.0°F 43.0°F 93% 30.01 in 3.0 miles West 13.8 mph 27.6 mph 0.05 in Rain Light Rain
4:58 AM 44.6°F 42.8°F 93% 30.00 in 3.0 miles WSW 11.5 mph - 0.01 in Rain Light Rain
5:35 AM 44.6°F 42.8°F 93% 29.99 in 5.0 miles SSW 4.6 mph - 0.02 in Rain Light Rain
5:53 AM 44.1°F 43.0°F 96% 29.99 in 5.0 miles West 4.6 mph - 0.02 in   Overcast
6:01 AM 44.6°F 42.8°F 93% 29.99 in 6.0 miles West 5.8 mph - N/A   Overcast
6:29 AM 44.6°F 42.8°F 93% 29.99 in 2.5 miles WSW 11.5 mph - 0.00 in Rain Rain
6:39 AM 44.6°F 42.8°F 93% 29.99 in 6.0 miles West 10.4 mph - 0.01 in Rain Light Rain
6:53 AM 44.1°F 41.0°F 89% 30.00 in 6.0 miles West 5.8 mph - 0.01 in   Mostly Cloudy
7:06 AM 44.6°F 41.0°F 87% 30.00 in 6.0 miles Calm Calm - N/A   Mostly Cloudy
7:32 AM 44.6°F 39.2°F 81% 29.99 in 6.0 miles West 8.1 mph - 0.00 in   Haze
7:53 AM 44.1°F 39.9°F 85% 30.00 in 6.0 miles WNW 11.5 mph 17.3 mph 0.00 in Rain Light Rain
8:53 AM 44.1°F 39.0°F 82% 30.01 in 3.0 miles West 10.4 mph - 0.01 in Rain Light Rain
9:00 AM 42.8°F 39.2°F 87% 30.01 in 1.8 miles NW 11.5 mph 18.4 mph 0.00 in Rain Rain
9:08 AM 42.8°F 39.2°F 87% 30.01 in 1.5 miles NW 11.5 mph 17.3 mph 0.02 in Rain Light Rain
9:13 AM 42.8°F 39.2°F 87% 30.01 in 3.0 miles West 4.6 mph - 0.02 in Rain Light Rain
9:20 AM 42.8°F 39.2°F 87% 30.01 in 5.0 miles West 8.1 mph - 0.02 in   Overcast
9:53 AM 43.0°F 37.9°F 82% 30.02 in 5.0 miles West 8.1 mph - 0.02 in Rain Light Rain
10:53 AM 44.1°F 37.0°F 76% 30.05 in 5.0 miles NW 8.1 mph 17.3 mph 0.00 in   Haze
11:53 AM 43.0°F 37.0°F 80% 30.06 in 4.0 miles WNW 12.7 mph 19.6 mph 0.01 in Rain Light Rain
12:53 PM 46.0°F 37.0°F 71% 30.06 in 5.0 miles WNW 12.7 mph 18.4 mph 0.00 in   Haze
1:53 PM 45.0°F 34.0°F 65% 30.08 in 5.0 miles WNW 11.5 mph - N/A   Haze
2:53 PM 44.1°F 33.1°F 65% 30.10 in 5.0 miles NW 5.8 mph - N/A   Haze
3:53 PM 43.0°F 33.1°F 68% 30.10 in 5.0 miles NW 6.9 mph - N/A   Haze
4:53 PM 43.0°F 33.1°F 68% 30.12 in 7.0 miles NW 6.9 mph - N/A   Mostly Cloudy
5:53 PM 39.9°F 37.0°F 89% 30.13 in 7.0 miles Calm Calm - 0.01 in   Mostly Cloudy
6:51 PM 39.2°F 37.4°F 93% 30.15 in 2.5 miles West 9.2 mph - 0.01 in Rain Light Rain
6:53 PM 39.0°F 37.0°F 93% 30.15 in 2.5 miles WNW 10.4 mph 16.1 mph 0.01 in Rain Light Rain
7:12 PM 39.2°F 35.6°F 87% 30.14 in 4.0 miles WSW 5.8 mph - N/A Rain Light Rain
7:53 PM 37.0°F 36.0°F 96% 30.17 in 6.0 miles Calm Calm - 0.04 in   Mostly Cloudy
7:59 PM 37.4°F 37.4°F 100% 30.16 in 2.5 miles Variable 5.8 mph - 0.01 in Rain Rain
8:16 PM 39.2°F 37.4°F 93% 30.16 in 3.0 miles WNW 3.5 mph - N/A Rain Light Rain
8:33 PM 37.4°F 37.4°F 100% 30.15 in 7.0 miles Calm Calm - 0.03 in   Overcast
8:53 PM 37.9°F 37.0°F 97% 30.16 in 6.0 miles SSE 3.5 mph - 0.03 in   Mostly Cloudy
9:53 PM 37.9°F 36.0°F 93% 30.17 in 4.0 miles NW 3.5 mph - 0.02 in Rain Light Rain
10:18 PM 39.2°F 35.6°F 87% 30.16 in 6.0 miles Variable 4.6 mph - 0.00 in Rain Light Rain
10:53 PM 37.0°F 36.0°F 96% 30.17 in 7.0 miles ESE 3.5 mph - 0.00 in   Partly Cloudy
11:53 PM 37.9°F 36.0°F 93% 30.18 in 6.0 miles East 3.5 mph - 0.01 in   Overcast
Moon Phase
Dec. 07 Dec. 13 Dec. 20 Dec. 28 Jan. 04
Sunrise:07:54 AM (PST) Moon Rise:12:55 AM (PST)12/7
Sunset:04:25 PM (PST) Moon Set:12:47 PM (PST)12/7

Copyright © 2014 The Weather Underground, Inc.